{"data":{"norad_id":67681,"epoch":"2026-05-25T03:32:04.148736Z","epoch_age_seconds":58370,"freshness":"FRESH","line1":"1 67681U 26023H   26145.14727024  .00007784  00000+0  31651-3 0  9990","line2":"2 67681  96.6311 211.8391 0021343 199.7019 160.3399 15.24556644 16482","mean_motion":15.24556644,"eccentricity":0.0021343,"inclination_deg":96.6311,"raan_deg":211.8391,"arg_perigee_deg":199.7019,"mean_anomaly_deg":160.3399,"bstar":0.00031651,"rev_number":1648,"period_min":94.453689580326,"perigee_km":477.45388589684,"apogee_km":506.78025241644,"semimajor_km":6870.2540691566,"source":"CELESTRAK","updated_at":"2026-05-25T13:38:07.185017Z"}}